Date String (YYYY-MM-DD hh:mm:ss) UTC,Instrument flags,absolute air pressure of the measurement (hPa),sample flow rate (lpm),inlet stack bypass flow (lpm),air temperature of the measurement (°C),ambient temperature measured by the external sensor (°C),aerosol sample conditioner tube jacket temperature (°C),OPC LED temperature (°C),internal box temperature (°C),relative humidity of the measurement (%),span deviation,mass concentration of particles derived from Lorenz-Mie calculation of OPC scattering (μg/m³),mass concentration of particles derived from Lorenz-Mie calculation of OPC scattering (μg/m³),mass concentration of particles derived from Lorenz-Mie calculation of OPC scattering (μg/m³)
DateTimeUTC,F1_M11,P_M11,Q1_M11,Q2_M11,T1_M11,T2_M11,T3_M11,T4_M11,T5_M11,U1_M11,ZSPAN_M11,X0_M11,X2_M11,X1_M11
2023-12-02 03:00:00,SystemResetWarning,0820.3,5.00,000.00,020.7,019.7,000.0,029.0,022.0,16.7,0001.9,0028.26,0016.15,0014.86
2023-12-02 03:01:00,SystemResetWarning,0820.3,4.99,000.00,020.7,019.7,000.0,029.0,022.0,16.7,0001.9,0028.79,0016.12,0014.80
2023-12-02 03:02:00,SystemResetWarning,0820.2,5.00,000.00,020.7,019.7,000.0,029.0,022.0,16.8,0002.1,0027.82,0016.04,0014.72
2023-12-02 03:03:00,SystemResetWarning,0820.2,5.00,000.00,020.7,019.6,000.0,029.0,021.9,16.8,0002.2,0027.49,0015.98,0014.67
2023-12-02 03:04:00,SystemResetWarning,0820.2,5.01,000.00,020.6,019.6,000.0,029.0,021.9,16.8,0002.4,0027.29,0015.97,0014.65
2023-12-02 03:05:00,SystemResetWarning,0820.2,5.00,000.00,020.6,019.6,000.0,029.0,021.8,16.8,0003.1,0027.65,0015.96,0014.60
2023-12-02 03:06:00,SystemResetWarning,0820.2,5.00,000.00,020.6,019.6,000.0,029.0,021.8,16.9,0003.2,0027.56,0015.96,0014.56
2023-12-02 03:07:00,SystemResetWarning,0820.2,5.00,000.00,020.6,019.6,000.0,029.0,021.8,16.9,0003.6,0027.78,0015.95,0014.53
2023-12-02 03:08:00,SystemResetWarning,0820.3,5.00,000.00,020.6,019.6,000.0,028.9,021.8,16.9,0003.6,0028.12,0015.93,0014.52
2023-12-02 03:09:00,SystemResetWarning,0820.3,5.01,000.00,020.6,019.6,000.0,028.9,021.8,16.8,0003.5,0028.10,0015.92,0014.53
2023-12-02 03:10:00,SystemResetWarning,0820.3,5.00,000.00,020.6,019.6,000.0,028.9,021.8,16.8,0003.5,0027.62,0015.95,0014.58
2023-12-02 03:11:00,SystemResetWarning,0820.3,4.99,000.00,020.6,019.6,000.0,028.9,021.8,16.8,0003.7,0027.18,0015.98,0014.63
2023-12-02 03:12:00,SystemResetWarning,0820.3,4.99,000.00,020.6,019.6,000.0,028.9,021.8,16.6,0003.6,0027.18,0016.04,0014.68
2023-12-02 03:13:00,SystemResetWarning,0820.3,5.00,000.00,020.6,019.6,000.0,028.9,021.8,16.4,0003.6,0027.45,0016.11,0014.73
2023-12-02 03:14:00,SystemResetWarning,0820.3,5.00,000.00,020.6,019.6,000.0,028.9,021.8,16.2,0003.7,0027.58,0016.14,0014.78
2023-12-02 03:15:00,SystemResetWarning,0820.3,5.00,000.00,020.6,019.6,000.0,028.9,021.9,16.1,0003.4,0027.52,0016.14,0014.78
2023-12-02 03:16:00,SystemResetWarning,0820.2,5.00,000.00,020.6,019.6,000.0,028.9,021.9,16.2,0003.1,0026.84,0016.22,0014.84
2023-12-02 03:17:00,SystemResetWarning,0820.2,5.00,000.00,020.6,019.6,000.0,028.9,021.8,16.3,0003.2,0026.28,0016.25,0014.90
2023-12-02 03:18:00,SystemResetWarning,0820.2,5.00,000.00,020.6,019.6,000.0,028.9,021.8,16.5,0002.9,0026.47,0016.37,0014.97
2023-12-02 03:19:00,SystemResetWarning,0820.1,5.00,000.00,020.6,019.6,000.0,028.9,021.8,16.6,0002.9,0026.83,0016.43,0014.99
2023-12-02 03:20:00,SystemResetWarning,0820.1,5.00,000.00,020.5,019.5,000.0,028.9,021.8,16.5,0003.1,0026.65,0016.43,0014.92
2023-12-02 03:21:00,SystemResetWarning,0820.2,5.00,000.00,020.5,019.5,000.0,028.9,021.8,16.1,0002.9,0026.12,0016.39,0014.80
2023-12-02 03:22:00,SystemResetWarning,0820.1,5.00,000.00,020.5,019.5,000.0,028.9,021.8,16.0,0002.8,0026.06,0016.34,0014.71
2023-12-02 03:23:00,SystemResetWarning,0820.1,5.00,000.00,020.5,019.5,000.0,028.9,021.8,15.9,0003.0,0026.19,0016.25,0014.64
2023-12-02 03:24:00,SystemResetWarning,0820.1,5.00,000.00,020.5,019.5,000.0,028.9,021.8,16.0,0003.1,0025.89,0016.27,0014.63
2023-12-02 03:25:00,SystemResetWarning,0820.1,5.00,000.00,020.5,019.5,000.0,028.9,021.8,15.9,0002.8,0025.80,0016.34,0014.67
2023-12-02 03:26:00,SystemResetWarning,0820.1,5.00,000.00,020.5,019.5,000.0,028.9,021.8,15.7,0003.2,0026.59,0016.42,0014.72
2023-12-02 03:27:00,SystemResetWarning,0820.0,5.00,000.00,020.5,019.5,000.0,028.9,021.7,15.6,0003.3,0027.21,0016.44,0014.74
2023-12-02 03:28:00,SystemResetWarning,0820.1,5.00,000.00,020.5,019.5,000.0,028.9,021.7,15.5,0003.2,0027.79,0016.43,0014.73
2023-12-02 03:29:00,SystemResetWarning,0820.2,5.00,000.00,020.5,019.5,000.0,028.9,021.7,15.5,0003.0,0028.02,0016.44,0014.78
2023-12-02 03:30:00,SystemResetWarning,0820.2,5.00,000.00,020.5,019.5,000.0,028.8,021.7,15.8,0002.7,0027.49,0016.47,0014.83
2023-12-02 03:31:00,SystemResetWarning,0820.4,5.00,000.00,020.5,019.5,000.0,028.8,021.6,15.8,0002.7,0028.61,0016.59,0015.00
2023-12-02 03:32:00,SystemResetWarning,0820.2,5.00,000.00,020.5,019.4,000.0,028.8,021.6,15.7,0002.8,0029.76,0016.72,0015.14
2023-12-02 03:33:00,SystemResetWarning,0820.1,5.00,000.00,020.5,019.4,000.0,028.8,021.6,15.8,0002.8,0030.20,0016.69,0015.16
2023-12-02 03:34:00,SystemResetWarning,0820.4,5.00,000.00,020.4,019.4,000.0,028.8,021.6,15.8,0002.3,0029.31,0016.69,0015.16
2023-12-02 03:35:00,SystemResetWarning,0820.1,5.00,000.00,020.4,019.4,000.0,028.8,021.6,15.9,0001.8,0029.04,0016.64,0015.10
2023-12-02 03:36:00,SystemResetWarning,0820.1,5.00,000.00,020.4,019.4,000.0,028.8,021.6,15.7,0001.7,0029.24,0016.57,0015.02
2023-12-02 03:37:00,SystemResetWarning,0820.1,5.00,000.00,020.4,019.4,000.0,028.8,021.6,15.9,0001.6,0029.10,0016.54,0015.02
2023-12-02 03:38:00,SystemResetWarning,0820.3,5.00,000.00,020.4,019.4,000.0,028.8,021.5,15.9,0001.5,0028.41,0016.44,0014.97
2023-12-02 03:39:00,SystemResetWarning,0820.1,5.00,000.00,020.3,019.4,000.0,028.8,021.5,16.0,0001.3,0027.73,0016.47,0014.96
2023-12-02 03:40:00,SystemResetWarning,0820.1,5.00,000.00,020.3,019.3,000.0,028.8,021.5,16.0,0001.4,0027.37,0016.44,0014.95
2023-12-02 03:41:00,SystemResetWarning,0820.1,5.00,000.00,020.3,019.3,000.0,028.7,021.5,15.5,0001.7,0026.88,0016.40,0015.00
2023-12-02 03:42:00,SystemResetWarning,0820.1,5.01,000.00,020.3,019.3,000.0,028.7,021.5,15.8,0001.5,0025.95,0016.30,0014.98
2023-12-02 03:43:00,SystemResetWarning,0819.9,5.00,000.00,020.3,019.3,000.0,028.7,021.4,15.9,0001.5,0024.10,0016.15,0014.88
2023-12-02 03:44:00,SystemResetWarning,0820.0,5.00,000.00,020.2,019.3,000.0,028.7,021.4,15.6,0001.4,0023.63,0016.27,0015.03
2023-12-02 03:45:00,SystemResetWarning,0820.0,5.00,000.00,020.2,019.2,000.0,028.7,021.4,15.8,0001.6,0024.07,0016.51,0015.25
2023-12-02 03:46:00,SystemResetWarning,0820.1,5.00,000.00,020.2,019.2,000.0,028.7,021.3,14.7,0001.9,0024.21,0016.70,0015.51
2023-12-02 03:47:00,SystemResetWarning,0819.9,5.00,000.00,020.2,019.2,000.0,028.7,021.3,13.5,0001.7,0024.21,0016.88,0015.73
2023-12-02 03:48:00,SystemResetWarning,0819.9,5.00,000.00,020.2,019.2,000.0,028.7,021.3,13.7,0001.4,0023.94,0016.78,0015.65
2023-12-02 03:49:00,SystemResetWarning,0820.0,5.00,000.00,020.1,019.2,000.0,028.7,021.2,13.6,0001.5,0024.20,0016.84,0015.71
2023-12-02 03:50:00,SystemResetWarning,0820.0,4.99,000.00,020.1,019.1,000.0,028.6,021.3,13.3,0001.6,0024.18,0016.94,0015.84
2023-12-02 03:51:00,SystemResetWarning,0820.0,4.99,000.00,020.1,019.1,000.0,028.6,021.2,13.0,0001.7,0023.98,0016.86,0015.79
2023-12-02 03:52:00,SystemResetWarning,0819.9,5.00,000.00,020.1,019.0,000.0,028.6,021.2,12.6,0001.6,0024.31,0016.82,0015.73
2023-12-02 03:53:00,SystemResetWarning,0819.9,5.01,000.00,020.0,019.0,000.0,028.6,021.2,12.4,0001.9,0023.72,0016.37,0015.26
2023-12-02 03:54:00,SystemResetWarning,0820.0,5.00,000.00,020.0,019.0,000.0,028.6,021.2,12.1,0002.1,0023.43,0015.80,0014.71
2023-12-02 03:55:00,SystemResetWarning,0819.9,5.00,000.00,020.0,018.9,000.0,028.6,021.2,11.7,0002.2,0022.92,0015.22,0014.18
2023-12-02 03:56:00,SystemResetWarning,0819.9,5.00,000.00,020.0,018.9,000.0,028.5,021.2,12.0,0002.2,0022.55,0014.68,0013.69
2023-12-02 03:57:00,SystemResetWarning,0820.0,5.00,000.00,020.0,018.9,000.0,028.5,021.1,12.2,0002.4,0021.80,0013.90,0012.98
2023-12-02 03:58:00,SystemResetWarning,0820.0,5.00,000.00,019.9,018.8,000.0,028.5,021.1,11.2,0002.4,0020.58,0013.07,0012.22
2023-12-02 03:59:00,SystemResetWarning,0819.8,4.99,000.00,019.9,018.8,000.0,028.5,021.0,11.3,0002.9,0019.29,0012.31,0011.55
